Location: Newark
(7.0858°N, 171.3717°E)
Time: 17:40:17
(UTC+00:00)

Transit 2A - Pass Details

Date: 02 December 2020
Orbit: 598 x 960 km, 66.7° (Epoch: 20 January)

Event Time Altitude Azimuth Distance (km) Brightness Sun altitude
Rises 05:12:48 0° 241° (WSW) 3,602 11.5 13.6°
Reaches altitude 10° 05:16:52 10° 266° (W) 2,681 10.4 12.7°
Maximum altitude 05:19:43 13° 293° (WNW) 2,448 9.4 12.0°
Drops below altitude 10° 05:22:36 10° 321° (NW) 2,678 9.1 11.4°
Sets 05:26:42 0° 347° (NNW) 3,594 9.4 10.5°
